,,,PA_Meas_PMT16A,,PR_Meas_QMR101_102,,RH_Meas_QMH101,,SR_Meas_QMS101,,TA_Meas_QMH101,,GenWind,,GenWind,
date,time,status,PA,status,PR,status,RH,status,SR,status,TA,status,DirAvg,status,SpdAvg,
2011-12-20, 00:00:05,VALID,1000.99,VALID,0,VALID,88.6171,VALID,0,VALID,25.5902,VALID,345,VALID,0.369922,
2011-12-20, 00:01:05,VALID,1000.96,VALID,0,VALID,88.6476,VALID,0,VALID,25.6097,VALID,353,VALID,0.523828,
2011-12-20, 00:02:05,VALID,1000.95,VALID,0,VALID,88.434,VALID,0,VALID,25.6292,VALID,352,VALID,0.736328,
2011-12-20, 00:03:05,VALID,1000.91,VALID,0,VALID,88.0602,VALID,0,VALID,25.6876,VALID,337,VALID,0.499219,
2011-12-20, 00:04:05,VALID,1000.88,VALID,0,VALID,87.7398,VALID,0,VALID,25.7265,VALID,338,VALID,0.691406,
2011-12-20, 00:05:05,VALID,1000.89,VALID,0,VALID,87.5948,VALID,0,VALID,25.746,VALID,351,VALID,0.622266,
2011-12-20, 00:06:05,VALID,1000.87,VALID,0,VALID,87.6863,VALID,0,VALID,25.7655,VALID,352,VALID,0.642578,
2011-12-20, 00:07:05,VALID,1000.86,VALID,0,VALID,87.5872,VALID,0,VALID,25.7655,VALID,342,VALID,0.674609,
2011-12-20, 00:08:05,VALID,1000.84,VALID,0,VALID,87.4041,VALID,0,VALID,25.7655,VALID,343,VALID,0.621484,
2011-12-20, 00:09:05,VALID,1000.85,VALID,0,VALID,87.2973,VALID,0,VALID,25.7655,VALID,340,VALID,0.626953,
2011-12-20, 00:10:05,VALID,1000.82,VALID,0,VALID,87.4346,VALID,0,VALID,25.7655,VALID,339,VALID,0.00585938,
2011-12-20, 00:11:05,VALID,1000.78,VALID,0,VALID,87.5338,VALID,0,VALID,25.746,VALID,340,VALID,0.478906,
2011-12-20, 00:12:05,VALID,1000.75,VALID,0,VALID,87.4499,VALID,0,VALID,25.746,VALID,350,VALID,0.744141,
2011-12-20, 00:13:05,VALID,1000.74,VALID,0,VALID,87.3659,VALID,0,VALID,25.7869,VALID,353,VALID,0.863281,
2011-12-20, 00:14:05,VALID,1000.73,VALID,0,VALID,87.4041,VALID,0,VALID,25.8064,VALID,345,VALID,0.316406,
2011-12-20, 00:15:05,VALID,1000.72,VALID,0,VALID,87.3736,VALID,0,VALID,25.8259,VALID,343,VALID,0.385938,
2011-12-20, 00:16:05,VALID,1000.7,VALID,0,VALID,87.4651,VALID,0,VALID,25.8259,VALID,309,VALID,0.290234,
2011-12-20, 00:17:05,VALID,1000.68,VALID,0,VALID,87.2515,VALID,0,VALID,25.8044,VALID,310,VALID,0.215234,
2011-12-20, 00:18:05,VALID,1000.7,VALID,0,VALID,87.16,VALID,0,VALID,25.8239,VALID,306,VALID,0.229687,
2011-12-20, 00:19:05,VALID,1000.68,VALID,0,VALID,87.0074,VALID,0,VALID,25.8843,VALID,324,VALID,0.560547,
2011-12-20, 00:20:05,VALID,1000.64,VALID,0,VALID,86.8014,VALID,0,VALID,25.8629,VALID,302,VALID,0.0519531,
2011-12-20, 00:21:05,VALID,1000.64,VALID,0,VALID,86.7709,VALID,0,VALID,25.9427,VALID,303,VALID,0.394922,
2011-12-20, 00:22:05,VALID,1000.59,VALID,0,VALID,86.5344,VALID,0,VALID,25.9213,VALID,313,VALID,0.373828,
2011-12-20, 00:23:05,VALID,1000.54,VALID,0,VALID,86.6565,VALID,0,VALID,25.9213,VALID,347,VALID,0.840234,
2011-12-20, 00:24:05,VALID,1000.54,VALID,0,VALID,86.4657,VALID,0,VALID,25.9213,VALID,345,VALID,0.667969,
2011-12-20, 00:25:05,VALID,1000.54,VALID,0,VALID,86.5878,VALID,0,VALID,25.9232,VALID,346,VALID,0.552344,
2011-12-20, 00:26:05,VALID,1000.52,VALID,0,VALID,86.5115,VALID,0,VALID,25.9018,VALID,347,VALID,0.579687,
2011-12-20, 00:27:05,VALID,1000.52,VALID,0,VALID,86.6107,VALID,0,VALID,25.9232,VALID,345,VALID,0.290625,
2011-12-20, 00:28:05,VALID,1000.52,VALID,0,VALID,86.7251,VALID,0,VALID,25.8823,VALID,345,VALID,0.469141,
2011-12-20, 00:29:05,VALID,1000.52,VALID,0,VALID,86.9769,VALID,0,VALID,25.8434,VALID,345,VALID,0.146094,
2011-12-20, 00:30:05,VALID,1000.52,VALID,0,VALID,87.1066,VALID,0,VALID,25.8434,VALID,355,VALID,0.935547,
2011-12-20, 00:31:05,VALID,1000.53,VALID,0,VALID,86.8548,VALID,0,VALID,25.8648,VALID,346,VALID,0.864062,
2011-12-20, 00:32:05,VALID,1000.48,VALID,0,VALID,86.7327,VALID,0,VALID,25.9038,VALID,347,VALID,0.902734,
2011-12-20, 00:33:05,VALID,1000.5,VALID,0,VALID,86.7099,VALID,0,VALID,25.9018,VALID,352,VALID,1.01289,
2011-12-20, 00:34:05,VALID,1000.49,VALID,0,VALID,86.6183,VALID,0,VALID,25.9408,VALID,348,VALID,0.734766,
2011-12-20, 00:35:05,VALID,1000.48,VALID,0,VALID,86.4047,VALID,0,VALID,25.9817,VALID,347,VALID,0.998438,
2011-12-20, 00:36:05,VALID,1000.49,VALID,0,VALID,86.3437,VALID,0,VALID,25.9797,VALID,335,VALID,0.604688,
2011-12-20, 00:37:05,VALID,1000.48,VALID,0,VALID,86.336,VALID,0,VALID,26.0401,VALID,342,VALID,0.223828,
2011-12-20, 00:38:05,VALID,1000.45,VALID,0,VALID,86.4352,VALID,0.0815089,VALID,26.0187,VALID,317,VALID,0.561328,
2011-12-20, 00:39:05,VALID,1000.45,VALID,0,VALID,86.5268,VALID,0,VALID,26.0187,VALID,335,VALID,0.562891,
2011-12-20, 00:40:05,VALID,1000.44,VALID,0,VALID,86.5039,VALID,0,VALID,26.0381,VALID,352,VALID,1.17578,
2011-12-20, 00:41:05,VALID,1000.43,VALID,0,VALID,86.4428,VALID,0,VALID,26.0381,VALID,352,VALID,0.730469,
2011-12-20, 00:42:05,VALID,1000.41,VALID,0,VALID,86.3971,VALID,0,VALID,26.0596,VALID,348,VALID,0.686719,
2011-12-20, 00:43:05,VALID,1000.38,VALID,0,VALID,86.4276,VALID,0,VALID,26.0381,VALID,347,VALID,0.392969,
2011-12-20, 00:44:05,VALID,1000.38,VALID,0,VALID,86.6259,VALID,0,VALID,26.0596,VALID,347,VALID,0.31875,
2011-12-20, 00:45:05,VALID,1000.37,VALID,0,VALID,86.6488,VALID,0.0815089,VALID,26.0381,VALID,346,VALID,0.620703,
2011-12-20, 00:46:05,VALID,1000.37,VALID,0,VALID,86.7327,VALID,0.0815089,VALID,26.0167,VALID,328,VALID,0.295703,
2011-12-20, 00:47:05,VALID,1000.34,VALID,0,VALID,86.8319,VALID,0.0815089,VALID,26.0381,VALID,334,VALID,0.394922,
2011-12-20, 00:48:05,VALID,1000.33,VALID,0,VALID,86.9921,VALID,0.0815089,VALID,25.9992,VALID,340,VALID,0.519141,
2011-12-20, 00:49:05,VALID,1000.35,VALID,0,VALID,87.1294,VALID,0.0815089,VALID,25.9388,VALID,342,VALID,0.619922,
2011-12-20, 00:50:05,VALID,1000.32,VALID,0,VALID,87.2896,VALID,0.0815089,VALID,25.9193,VALID,342,VALID,0.480078,
2011-12-20, 00:51:05,VALID,1000.35,VALID,0,VALID,87.4422,VALID,0.0815089,VALID,25.9018,VALID,342,VALID,0.5125,
2011-12-20, 00:52:05,VALID,1000.33,VALID,0,VALID,87.6482,VALID,0.0815089,VALID,25.8629,VALID,340,VALID,0.247656,
2011-12-20, 00:53:05,VALID,1000.3,VALID,0,VALID,87.7626,VALID,0.0815089,VALID,25.8219,VALID,340,VALID,0.371094,
2011-12-20, 00:54:05,VALID,1000.3,VALID,0,VALID,87.8694,VALID,0.0815089,VALID,25.783,VALID,343,VALID,0.515234,
2011-12-20, 00:55:05,VALID,1000.32,VALID,0,VALID,87.9762,VALID,0.0815089,VALID,25.8239,VALID,343,VALID,0.550391,
2011-12-20, 00:56:05,VALID,1000.35,VALID,0,VALID,87.9991,VALID,0.0815089,VALID,25.7635,VALID,343,VALID,0.491406,
2011-12-20, 00:57:05,VALID,1000.33,VALID,0,VALID,88.0907,VALID,0.0815089,VALID,25.7635,VALID,344,VALID,0.452734,
2011-12-20, 00:58:05,VALID,1000.32,VALID,0,VALID,88.1975,VALID,0.0815089,VALID,25.746,VALID,344,VALID,0.269141,
2011-12-20, 00:59:05,VALID,1000.33,VALID,0,VALID,88.4035,VALID,0.0815089,VALID,25.7071,VALID,344,VALID,0.645312,
2011-12-20, 01:00:05,VALID,1000.3,VALID,0,VALID,88.5408,VALID,0,VALID,25.6876,VALID,344,VALID,0.362109,
2011-12-20, 01:01:05,VALID,1000.33,VALID,0,VALID,88.6323,VALID,0,VALID,25.6895,VALID,345,VALID,0.4125,
2011-12-20, 01:02:05,VALID,1000.33,VALID,0,VALID,88.5789,VALID,0,VALID,25.6895,VALID,345,VALID,0.333203,
2011-12-20, 01:03:05,VALID,1000.31,VALID,0,VALID,88.6323,VALID,0,VALID,25.6681,VALID,347,VALID,0.752344,
2011-12-20, 01:04:05,VALID,1000.34,VALID,0,VALID,88.5713,VALID,0,VALID,25.6681,VALID,347,VALID,0.514453,
2011-12-20, 01:05:05,VALID,1000.33,VALID,0,VALID,88.4798,VALID,0,VALID,25.6876,VALID,347,VALID,0.558203,
2011-12-20, 01:06:05,VALID,1000.35,VALID,0,VALID,88.4645,VALID,0,VALID,25.6895,VALID,347,VALID,0.460156,
2011-12-20, 01:07:05,VALID,1000.37,VALID,0,VALID,88.5637,VALID,0,VALID,25.6486,VALID,347,VALID,0.481641,
2011-12-20, 01:08:05,VALID,1000.36,VALID,0,VALID,88.5942,VALID,0,VALID,25.6895,VALID,353,VALID,0.376563,
2011-12-20, 01:09:05,VALID,1000.33,VALID,0,VALID,88.6857,VALID,0,VALID,25.67,VALID,353,VALID,0.439063,
2011-12-20, 01:10:05,VALID,1000.33,VALID,0,VALID,88.6552,VALID,0,VALID,25.6311,VALID,353,VALID,0.53125,
2011-12-20, 01:11:05,VALID,1000.31,VALID,0,VALID,88.7773,VALID,0,VALID,25.6116,VALID,353,VALID,0.492969,
2011-12-20, 01:12:05,VALID,1000.31,VALID,0,VALID,88.9985,VALID,0,VALID,25.5727,VALID,353,VALID,0.435937,
2011-12-20, 01:13:05,VALID,1000.27,VALID,0,VALID,89.2808,VALID,0,VALID,25.5337,VALID,353,VALID,0.322266,
2011-12-20, 01:14:05,VALID,1000.25,VALID,0,VALID,89.3418,VALID,0,VALID,25.5318,VALID,354,VALID,0.64375,
2011-12-20, 01:15:05,VALID,1000.23,VALID,0,VALID,89.2732,VALID,0,VALID,25.5318,VALID,354,VALID,0.521094,
2011-12-20, 01:16:05,VALID,1000.21,VALID,0,VALID,89.3113,VALID,0,VALID,25.5337,VALID,353,VALID,0.304688,
2011-12-20, 01:17:05,VALID,1000.19,VALID,0,VALID,89.3876,VALID,0,VALID,25.4928,VALID,353,VALID,0.311719,
2011-12-20, 01:18:05,VALID,1000.19,VALID,0,VALID,89.5554,VALID,0,VALID,25.4753,VALID,353,VALID,0.4,
2011-12-20, 01:19:05,VALID,1000.17,VALID,0,VALID,89.647,VALID,0,VALID,25.4753,VALID,353,VALID,0.39375,
2011-12-20, 01:20:05,VALID,1000.18,VALID,0,VALID,89.7385,VALID,0,VALID,25.4149,VALID,353,VALID,0.235156,
2011-12-20, 01:21:05,VALID,1000.18,VALID,0,VALID,89.7996,VALID,0,VALID,25.4169,VALID,353,VALID,0.263281,
2011-12-20, 01:22:05,VALID,1000.16,VALID,0,VALID,89.8758,VALID,0,VALID,25.3176,VALID,353,VALID,0.238281,
2011-12-20, 01:23:05,VALID,1000.15,VALID,0,VALID,90.1505,VALID,0,VALID,25.2981,VALID,353,VALID,0.454688,
2011-12-20, 01:24:05,VALID,1000.19,VALID,0,VALID,90.2268,VALID,0.0815089,VALID,25.2592,VALID,353,VALID,0.371484,
2011-12-20, 01:25:05,VALID,1000.17,VALID,0,VALID,90.7837,VALID,0,VALID,25.2397,VALID,353,VALID,0.354297,
2011-12-20, 01:26:05,VALID,1000.16,VALID,0,VALID,90.9439,VALID,0,VALID,25.2397,VALID,353,VALID,0.459375,
2011-12-20, 01:27:05,VALID,1000.16,VALID,0,VALID,90.8829,VALID,0,VALID,25.2397,VALID,353,VALID,0.394531,
2011-12-20, 01:28:05,VALID,1000.12,VALID,0,VALID,90.7913,VALID,0.0815089,VALID,25.2397,VALID,353,VALID,0,
2011-12-20, 01:29:05,VALID,1000.1,VALID,0,VALID,90.9668,VALID,0.0815089,VALID,25.2202,VALID,353,VALID,0,
2011-12-20, 01:30:05,VALID,1000.09,VALID,0,VALID,91.1041,VALID,0,VALID,25.2202,VALID,353,VALID,0.421875,
2011-12-20, 01:31:05,VALID,1000.08,VALID,0,VALID,90.8371,VALID,0,VALID,25.2202,VALID,353,VALID,0.256641,
2011-12-20, 01:32:05,VALID,1000.05,VALID,0,VALID,90.8371,VALID,0,VALID,25.1813,VALID,354,VALID,0.361719,
2011-12-20, 01:33:05,VALID,1000.05,VALID,0,VALID,90.9591,VALID,0,VALID,25.1618,VALID,353,VALID,0.567187,
2011-12-20, 01:34:05,VALID,1000.03,VALID,0,VALID,91.1422,VALID,0,VALID,25.1229,VALID,354,VALID,0.291016,
2011-12-20, 01:35:05,VALID,1000.02,VALID,0,VALID,91.3482,VALID,0,VALID,25.1248,VALID,353,VALID,0.291016,
2011-12-20, 01:36:05,VALID,1000,VALID,0,VALID,91.4779,VALID,0,VALID,25.1034,VALID,353,VALID,0.446875,
2011-12-20, 01:37:05,VALID,999.985,VALID,0,VALID,91.6076,VALID,0,VALID,25.1034,VALID,353,VALID,0.240625,
2011-12-20, 01:38:05,VALID,999.987,VALID,0,VALID,91.7525,VALID,0,VALID,25.1229,VALID,353,VALID,0.323828,
2011-12-20, 01:39:05,VALID,999.914,VALID,0,VALID,91.4779,VALID,0,VALID,25.1442,VALID,353,VALID,0.563281,
2011-12-20, 01:40:05,VALID,999.895,VALID,0,VALID,91.4779,VALID,0,VALID,25.1229,VALID,353,VALID,0.560156,
2011-12-20, 01:41:05,VALID,999.846,VALID,0,VALID,91.722,VALID,0,VALID,25.1442,VALID,351,VALID,0.422266,
2011-12-20, 01:42:05,VALID,999.81,VALID,0,VALID,91.5618,VALID,0,VALID,25.1423,VALID,351,VALID,0.119531,
2011-12-20, 01:43:05,VALID,999.797,VALID,0,VALID,91.333,VALID,0,VALID,25.1423,VALID,351,VALID,0.464063,
2011-12-20, 01:44:05,VALID,999.751,VALID,0,VALID,91.4779,VALID,0,VALID,25.1637,VALID,351,VALID,0.512109,
2011-12-20, 01:45:05,VALID,999.745,VALID,0,VALID,91.4245,VALID,0,VALID,25.1229,VALID,351,VALID,0.570313,
2011-12-20, 01:46:05,VALID,999.738,VALID,0,VALID,91.5695,VALID,0,VALID,25.1248,VALID,351,VALID,0.461719,
2011-12-20, 01:47:05,VALID,999.734,VALID,0,VALID,91.7678,VALID,0,VALID,25.1248,VALID,351,VALID,0.612891,
2011-12-20, 01:48:05,VALID,999.714,VALID,0,VALID,91.8899,VALID,0,VALID,25.1053,VALID,351,VALID,0.655078,
2011-12-20, 01:49:05,VALID,999.727,VALID,0,VALID,92.0348,VALID,0,VALID,25.0858,VALID,351,VALID,0.400391,
2011-12-20, 01:50:05,VALID,999.74,VALID,0,VALID,92.1111,VALID,0,VALID,25.1053,VALID,351,VALID,0.5,
2011-12-20, 01:51:05,VALID,999.747,VALID,0,VALID,92.1416,VALID,0,VALID,25.1053,VALID,354,VALID,0.623438,
2011-12-20, 01:52:05,VALID,999.745,VALID,0,VALID,92.1492,VALID,0,VALID,25.0858,VALID,354,VALID,0.105469,
2011-12-20, 01:53:05,VALID,999.74,VALID,0,VALID,92.0501,VALID,0,VALID,25.0858,VALID,354,VALID,0.140625,
2011-12-20, 01:54:05,VALID,999.761,VALID,0,VALID,92.1187,VALID,0,VALID,25.0644,VALID,354,VALID,0.19375,
2011-12-20, 01:55:05,VALID,999.766,VALID,0,VALID,92.1645,VALID,0,VALID,25.0858,VALID,354,VALID,0,
2011-12-20, 01:56:05,VALID,999.773,VALID,0,VALID,92.1645,VALID,0,VALID,25.045,VALID,354,VALID,0,
2011-12-20, 01:57:05,VALID,999.81,VALID,0,VALID,92.34,VALID,0,VALID,25.0255,VALID,354,VALID,0,
2011-12-20, 01:58:05,VALID,999.788,VALID,0,VALID,92.4163,VALID,0,VALID,25.0663,VALID,354,VALID,0,
2011-12-20, 01:59:05,VALID,999.768,VALID,0,VALID,92.401,VALID,0,VALID,25.045,VALID,354,VALID,0,
2011-12-20, 02:00:04,VALID,999.789,VALID,0,VALID,92.3781,VALID,0,VALID,25.0644,VALID,354,VALID,0,
2011-12-20, 02:01:04,VALID,999.769,VALID,0,VALID,92.4239,VALID,0,VALID,25.0644,VALID,354,VALID,0,
2011-12-20, 02:02:04,VALID,999.761,VALID,0,VALID,92.4468,VALID,0,VALID,25.1053,VALID,354,VALID,0,
2011-12-20, 02:03:04,VALID,999.789,VALID,0,VALID,92.0958,VALID,0,VALID,25.1034,VALID,354,VALID,0.369922,
2011-12-20, 02:04:04,VALID,999.776,VALID,0,VALID,91.9051,VALID,0,VALID,25.0644,VALID,354,VALID,0.448438,
2011-12-20, 02:05:04,VALID,999.781,VALID,0,VALID,92.0119,VALID,0,VALID,25.0663,VALID,354,VALID,0.497656,
2011-12-20, 02:06:04,VALID,999.76,VALID,0,VALID,92.1264,VALID,0,VALID,25.0255,VALID,354,VALID,0.510938,
2011-12-20, 02:07:04,VALID,999.75,VALID,0,VALID,92.2103,VALID,0,VALID,24.9671,VALID,354,VALID,0.515234,
2011-12-20, 02:08:04,VALID,999.761,VALID,0,VALID,92.4315,VALID,0,VALID,24.9476,VALID,354,VALID,0.578906,
2011-12-20, 02:09:04,VALID,999.729,VALID,0,VALID,92.6146,VALID,0,VALID,24.9087,VALID,354,VALID,0.508203,
2011-12-20, 02:10:04,VALID,999.735,VALID,0,VALID,92.7519,VALID,0,VALID,24.8892,VALID,354,VALID,0.388672,
2011-12-20, 02:11:04,VALID,999.722,VALID,0,VALID,92.9579,VALID,0,VALID,24.8697,VALID,354,VALID,0.464844,
2011-12-20, 02:12:04,VALID,999.696,VALID,0,VALID,93.0876,VALID,0,VALID,24.8911,VALID,354,VALID,0.448047,
2011-12-20, 02:13:04,VALID,999.686,VALID,0,VALID,93.1639,VALID,0,VALID,24.8503,VALID,354,VALID,0.549609,
2011-12-20, 02:14:04,VALID,999.652,VALID,0,VALID,93.4004,VALID,0,VALID,24.8716,VALID,354,VALID,0.429297,
2011-12-20, 02:15:04,VALID,999.646,VALID,0,VALID,93.4462,VALID,0,VALID,24.8697,VALID,355,VALID,0.508594,
2011-12-20, 02:16:04,VALID,999.674,VALID,0,VALID,93.2783,VALID,0,VALID,24.8697,VALID,355,VALID,0.317578,
2011-12-20, 02:17:04,VALID,999.658,VALID,0,VALID,93.4004,VALID,0,VALID,24.8697,VALID,355,VALID,0.421094,
2011-12-20, 02:18:04,VALID,999.689,VALID,0,VALID,93.5987,VALID,0.0815089,VALID,24.9087,VALID,355,VALID,0,
2011-12-20, 02:19:04,VALID,999.689,VALID,0,VALID,93.3165,VALID,0,VALID,24.93,VALID,355,VALID,0.352344,
2011-12-20, 02:20:04,VALID,999.686,VALID,0,VALID,93.3394,VALID,0,VALID,24.9282,VALID,348,VALID,0.408594,
2011-12-20, 02:21:04,VALID,999.668,VALID,0,VALID,93.1868,VALID,0,VALID,24.9282,VALID,348,VALID,0.505469,
2011-12-20, 02:22:04,VALID,999.678,VALID,0,VALID,92.8816,VALID,0.0815089,VALID,24.9087,VALID,348,VALID,0.531641,
2011-12-20, 02:23:04,VALID,999.685,VALID,0,VALID,92.7824,VALID,0,VALID,24.8697,VALID,348,VALID,0.355859,
2011-12-20, 02:24:04,VALID,999.656,VALID,0,VALID,92.8435,VALID,0,VALID,24.8308,VALID,348,VALID,0.265625,
2011-12-20, 02:25:04,VALID,999.652,VALID,0,VALID,92.8053,VALID,0,VALID,24.8113,VALID,348,VALID,0.309766,
2011-12-20, 02:26:04,VALID,999.638,VALID,0,VALID,93.1181,VALID,0.0815089,VALID,24.8113,VALID,348,VALID,0.523047,
2011-12-20, 02:27:04,VALID,999.598,VALID,0,VALID,93.4462,VALID,0,VALID,24.7919,VALID,348,VALID,0.4875,
2011-12-20, 02:28:04,VALID,999.608,VALID,0,VALID,93.5148,VALID,0,VALID,24.8308,VALID,348,VALID,0.541016,
2011-12-20, 02:29:04,VALID,999.603,VALID,0,VALID,93.3775,VALID,0,VALID,24.8308,VALID,348,VALID,0.596875,
2011-12-20, 02:30:04,VALID,999.574,VALID,0,VALID,93.3241,VALID,0,VALID,24.8522,VALID,347,VALID,0.516406,
2011-12-20, 02:31:04,VALID,999.589,VALID,0,VALID,93.4462,VALID,0,VALID,24.8308,VALID,347,VALID,0.501953,
2011-12-20, 02:32:04,VALID,999.572,VALID,0,VALID,93.6369,VALID,0,VALID,24.8697,VALID,347,VALID,0.656641,
2011-12-20, 02:33:04,VALID,999.555,VALID,0,VALID,93.5377,VALID,0,VALID,24.9087,VALID,344,VALID,0.594141,
2011-12-20, 02:34:04,VALID,999.545,VALID,0,VALID,93.3622,VALID,0,VALID,24.9476,VALID,346,VALID,0.634375,
2011-12-20, 02:35:04,VALID,999.582,VALID,0,VALID,93.347,VALID,0,VALID,24.9866,VALID,340,VALID,0.740234,
2011-12-20, 02:36:04,VALID,999.551,VALID,0,VALID,93.2173,VALID,0,VALID,25.0644,VALID,349,VALID,0.659375,
2011-12-20, 02:37:04,VALID,999.562,VALID,0,VALID,92.8969,VALID,0,VALID,25.1248,VALID,342,VALID,0.627344,
2011-12-20, 02:38:04,VALID,999.541,VALID,0,VALID,92.7062,VALID,0,VALID,25.1813,VALID,346,VALID,0.558203,
2011-12-20, 02:39:04,VALID,999.559,VALID,0,VALID,92.2027,VALID,0,VALID,25.2221,VALID,346,VALID,0.394141,
2011-12-20, 02:40:04,VALID,999.519,VALID,0,VALID,91.8975,VALID,0,VALID,25.2592,VALID,346,VALID,0.385938,
2011-12-20, 02:41:04,VALID,999.528,VALID,0,VALID,91.9128,VALID,0,VALID,25.2611,VALID,337,VALID,0.79375,
2011-12-20, 02:42:04,VALID,999.532,VALID,0,VALID,91.6229,VALID,0,VALID,25.2592,VALID,337,VALID,0.375391,
2011-12-20, 02:43:04,VALID,999.527,VALID,0,VALID,91.5161,VALID,0,VALID,25.2592,VALID,337,VALID,0.406641,
2011-12-20, 02:44:04,VALID,999.532,VALID,0,VALID,91.7373,VALID,0,VALID,25.2202,VALID,337,VALID,0.484766,
2011-12-20, 02:45:04,VALID,999.527,VALID,0,VALID,91.9433,VALID,0,VALID,25.2202,VALID,337,VALID,0.390234,
2011-12-20, 02:46:04,VALID,999.498,VALID,0,VALID,91.8365,VALID,0,VALID,25.2397,VALID,337,VALID,0.399609,
2011-12-20, 02:47:04,VALID,999.496,VALID,0,VALID,92.0272,VALID,0,VALID,25.2592,VALID,338,VALID,0.746484,
2011-12-20, 02:48:04,VALID,999.483,VALID,0,VALID,91.9662,VALID,0,VALID,25.2786,VALID,338,VALID,0.530859,
2011-12-20, 02:49:04,VALID,999.491,VALID,0,VALID,91.6763,VALID,0,VALID,25.2611,VALID,338,VALID,0.387109,
2011-12-20, 02:50:04,VALID,999.486,VALID,0,VALID,91.7449,VALID,0,VALID,25.2397,VALID,338,VALID,0.345313,
2011-12-20, 02:51:04,VALID,999.471,VALID,0,VALID,92.1264,VALID,0,VALID,25.2592,VALID,342,VALID,0.746484,
2011-12-20, 02:52:04,VALID,999.495,VALID,0,VALID,92.1645,VALID,0,VALID,25.3195,VALID,343,VALID,0.493359,
2011-12-20, 02:53:04,VALID,999.504,VALID,0,VALID,92.0501,VALID,0,VALID,25.3176,VALID,343,VALID,0.4625,
2011-12-20, 02:54:04,VALID,999.494,VALID,0,VALID,91.7907,VALID,0,VALID,25.3584,VALID,345,VALID,0.551562,
2011-12-20, 02:55:04,VALID,999.521,VALID,0,VALID,91.3787,VALID,0,VALID,25.337,VALID,349,VALID,0.701953,
2011-12-20, 02:56:04,VALID,999.533,VALID,0,VALID,91.4474,VALID,0,VALID,25.2981,VALID,349,VALID,0.772656,
2011-12-20, 02:57:04,VALID,999.517,VALID,0,VALID,91.6381,VALID,0,VALID,25.2786,VALID,347,VALID,0.811328,
2011-12-20, 02:58:04,VALID,999.504,VALID,0,VALID,91.7144,VALID,0,VALID,25.2378,VALID,340,VALID,0.700781,
2011-12-20, 02:59:04,VALID,999.457,VALID,0,VALID,91.7373,VALID,0,VALID,25.2397,VALID,344,VALID,0.603906,
2011-12-20, 03:00:04,VALID,999.482,VALID,0,VALID,91.928,VALID,0,VALID,25.2611,VALID,343,VALID,0.392188,
2011-12-20, 03:01:04,VALID,999.485,VALID,0,VALID,91.9738,VALID,0,VALID,25.2397,VALID,343,VALID,0.471484,
2011-12-20, 03:02:04,VALID,999.474,VALID,0,VALID,92.1798,VALID,0,VALID,25.3,VALID,348,VALID,0.745703,
2011-12-20, 03:03:04,VALID,999.47,VALID,0,VALID,92.0653,VALID,0,VALID,25.2981,VALID,1,VALID,0.558984,
2011-12-20, 03:04:04,VALID,999.499,VALID,0,VALID,91.9356,VALID,0,VALID,25.3779,VALID,1,VALID,0.0152344,
2011-12-20, 03:05:04,VALID,999.487,VALID,0,VALID,91.928,VALID,0,VALID,25.376,VALID,1,VALID,0.357031,
2011-12-20, 03:06:04,VALID,999.502,VALID,0,VALID,91.8975,VALID,0,VALID,25.376,VALID,317,VALID,0.558203,
2011-12-20, 03:07:04,VALID,999.476,VALID,0,VALID,91.6457,VALID,0,VALID,25.4363,VALID,301,VALID,0.139062,
2011-12-20, 03:08:04,VALID,999.481,VALID,0,VALID,91.6305,VALID,0,VALID,25.4558,VALID,360,VALID,0.6375,
2011-12-20, 03:09:04,VALID,999.483,VALID,0,VALID,91.5618,VALID,0,VALID,25.4734,VALID,354,VALID,0.187109,
2011-12-20, 03:10:04,VALID,999.516,VALID,0,VALID,91.4245,VALID,0,VALID,25.5123,VALID,354,VALID,0.31875,
2011-12-20, 03:11:04,VALID,999.493,VALID,0,VALID,91.2567,VALID,0,VALID,25.5318,VALID,354,VALID,0.210547,
2011-12-20, 03:12:04,VALID,999.521,VALID,0,VALID,91.1728,VALID,0,VALID,25.5727,VALID,354,VALID,0.08125,
2011-12-20, 03:13:04,VALID,999.56,VALID,0,VALID,91.1117,VALID,0,VALID,25.5318,VALID,354,VALID,0,
2011-12-20, 03:14:04,VALID,999.559,VALID,0,VALID,91.0965,VALID,0,VALID,25.5318,VALID,354,VALID,0.0328125,
2011-12-20, 03:15:04,VALID,999.574,VALID,0,VALID,91.0965,VALID,0,VALID,25.5532,VALID,354,VALID,0,
2011-12-20, 03:16:04,VALID,999.587,VALID,0,VALID,91.0888,VALID,0,VALID,25.5318,VALID,353,VALID,0.0558594,
2011-12-20, 03:17:04,VALID,999.585,VALID,0,VALID,91.1422,VALID,0,VALID,25.5513,VALID,344,VALID,0.645703,
2011-12-20, 03:18:04,VALID,999.569,VALID,0,VALID,91.0583,VALID,0,VALID,25.5318,VALID,345,VALID,0.412109,
2011-12-20, 03:19:04,VALID,999.581,VALID,0,VALID,90.982,VALID,0,VALID,25.5513,VALID,346,VALID,0.0136719,
2011-12-20, 03:20:04,VALID,999.583,VALID,0,VALID,90.9591,VALID,0,VALID,25.5532,VALID,342,VALID,0.305078,
2011-12-20, 03:21:04,VALID,999.591,VALID,0,VALID,90.9286,VALID,0,VALID,25.5318,VALID,12,VALID,0.202734,
2011-12-20, 03:22:04,VALID,999.613,VALID,0,VALID,90.9744,VALID,0,VALID,25.5104,VALID,12,VALID,0,
2011-12-20, 03:23:04,VALID,999.6,VALID,0,VALID,91.0049,VALID,0,VALID,25.5123,VALID,12,VALID,0,
2011-12-20, 03:24:04,VALID,999.595,VALID,0,VALID,91.0049,VALID,0,VALID,25.5123,VALID,12,VALID,0.00234375,
2011-12-20, 03:25:04,VALID,999.598,VALID,0,VALID,91.0125,VALID,0,VALID,25.5123,VALID,350,VALID,0.535937,
2011-12-20, 03:26:04,VALID,999.599,VALID,0,VALID,90.9744,VALID,0,VALID,25.5337,VALID,348,VALID,0.242969,
2011-12-20, 03:27:04,VALID,999.584,VALID,0,VALID,90.9591,VALID,0,VALID,25.5318,VALID,347,VALID,0.375781,
2011-12-20, 03:28:04,VALID,999.627,VALID,0,VALID,91.0202,VALID,0,VALID,25.5318,VALID,351,VALID,0.980859,
2011-12-20, 03:29:04,VALID,999.609,VALID,0,VALID,90.9515,VALID,0,VALID,25.5318,VALID,344,VALID,0.532422,
2011-12-20, 03:30:04,VALID,999.619,VALID,0,VALID,90.8829,VALID,0,VALID,25.5318,VALID,346,VALID,0.201562,
2011-12-20, 03:31:04,VALID,999.614,VALID,0,VALID,90.8371,VALID,0,VALID,25.5318,VALID,346,VALID,0.203516,
2011-12-20, 03:32:04,VALID,999.607,VALID,0,VALID,90.8371,VALID,0,VALID,25.5337,VALID,347,VALID,0.385547,
2011-12-20, 03:33:04,VALID,999.621,VALID,0,VALID,90.9515,VALID,0,VALID,25.5123,VALID,347,VALID,0.340234,
2011-12-20, 03:34:04,VALID,999.607,VALID,0,VALID,90.9973,VALID,0,VALID,25.5337,VALID,338,VALID,0.410156,
2011-12-20, 03:35:04,VALID,999.607,VALID,0,VALID,90.982,VALID,0,VALID,25.5123,VALID,333,VALID,0.457812,
2011-12-20, 03:36:04,VALID,999.58,VALID,0,VALID,90.9439,VALID,0,VALID,25.5532,VALID,333,VALID,0.220313,
2011-12-20, 03:37:04,VALID,999.574,VALID,0,VALID,90.9591,VALID,0,VALID,25.5532,VALID,345,VALID,0.1375,
2011-12-20, 03:38:04,VALID,999.568,VALID,0,VALID,90.921,VALID,0,VALID,25.5532,VALID,349,VALID,0.167578,
2011-12-20, 03:39:04,VALID,999.578,VALID,0,VALID,90.9591,VALID,0,VALID,25.5532,VALID,359,VALID,0.33125,
2011-12-20, 03:40:04,VALID,999.547,VALID,0,VALID,90.9897,VALID,0,VALID,25.5318,VALID,342,VALID,0.625781,
2011-12-20, 03:41:04,VALID,999.597,VALID,0,VALID,90.9057,VALID,0,VALID,25.5513,VALID,350,VALID,0.00234375,
2011-12-20, 03:42:04,VALID,999.544,VALID,0,VALID,90.86,VALID,0,VALID,25.5513,VALID,334,VALID,0.275781,
2011-12-20, 03:43:04,VALID,999.563,VALID,0,VALID,90.9363,VALID,0,VALID,25.5921,VALID,350,VALID,0.856641,